Flag for Burkina Faso Weather past 2 weeks in Koudougou, Burkina Faso

Now
68 °F

Clear.


Feels Like: 68 °F
Forecast: 66 / 93 °F
Wind: 6 mph from Northeast

Location: Ouagadougou Airport

Current Time: Dec 23, 2014 at 4:47:28 AM

Latest Report: Dec 23, 2014 at 4:00 AM


Visibility: 10 mi

Pressure: 29.98 "Hg

Humidity: 30%

Dew point: 36 °F

Location of KoudougouLocation

Historic Weather in Koudougou — Graph

°F

Koudougou temperature yesterday

Maximum temperature yesterday: 93 °F (at 2:00 PM)
Minimum temperature yesterday: 66 °F (at 6:00 AM)
Average temperature yesterday: 79 °F

Past Weeks' High & Low Weather Summary

 TemperatureHumidityPressure
High99 °F (Dec 9, 2:00 PM)52% (Dec 9, 4:00 AM)30.04 "Hg (Dec 9, 4:00 AM)
Low61 °F (Dec 12, 7:00 AM)9% (Dec 8, 1:00 PM)29.83 "Hg (Dec 8, 4:00 PM)
Average79 °F22%29.95 "Hg
* Reported Dec 8 3:00 AM — Dec 23 3:00 AM, Koudougou, Weather by CustomWeather, © 2014

Note: Actual official high and low records may vary slightly from our data, if they occured in-between our weather recording intervals... More about our weather records

Advertising

Koudougou weather history for previous 24 hours

 ConditionsComfort  
Time TempWeatherWind HumidityBarometerVisibility
3:00 AM
Dec 23
72 °FClear.8 mph25%29.98 "Hg10 mi
2:00 AM72 °FClear.7 mph27%29.98 "Hg5 mi
1:00 AM72 °FClear.7 mph29%29.98 "Hg5 mi
12:00 AM72 °FClear.5 mph31%30.01 "Hg5 mi
11:00 PM
Dec 22
75 °FClear.8 mph27%30.01 "Hg5 mi
10:00 PM75 °FClear.6 mph29%30.01 "Hg4 mi
9:00 PM77 °FClear.5 mph28%29.98 "Hg4 mi
8:00 PM79 °FHaze.5 mph26%29.95 "Hg3 mi
7:00 PM81 °FHaze.3 mph24%29.92 "Hg3 mi
6:00 PM84 °FHaze.7 mph20%29.92 "Hg3 mi
5:00 PM91 °FClear.6 mph16%29.89 "Hg5 mi
4:00 PM93 °FClear.7 mph15%29.89 "Hg5 mi
3:00 PM93 °FClear.6 mph14%29.89 "Hg5 mi
2:00 PM93 °FClear.8 mph14%29.92 "Hg5 mi
1:00 PM91 °FClear.9 mph15%29.95 "Hg5 mi
12:00 PM90 °FClear.13 mph15%29.98 "Hg4 mi
11:00 AM88 °FClear.13 mph16%29.98 "Hg4 mi
10:00 AM84 °FHaze.15 mph16%30.01 "Hg2 mi
9:00 AM79 °FHaze.12 mph23%30.01 "Hg2 mi
8:00 AM75 °FHaze.10 mph24%30.01 "Hg2 mi
7:00 AM68 °FClear.5 mph35%29.98 "Hg4 mi
6:00 AM66 °FClear.5 mph37%29.95 "Hg10 mi
5:00 AM68 °FClear.3 mph38%29.95 "Hg10 mi
4:00 AM68 °FClear.5 mph35%29.95 "Hg10 mi
Weather by CustomWeather, © 2014

See weather overviewHow to use our weather pages